Year,Month,Day,Hour,Minute,Value (Times are PST for temperature in C)
2015,05,21,00,00,17.40
2015,05,21,00,01,17.40
2015,05,21,00,02,17.30
2015,05,21,00,03,17.30
2015,05,21,00,04,17.30
2015,05,21,00,05,17.30
2015,05,21,00,06,17.20
2015,05,21,00,07,17.20
2015,05,21,00,08,17.10
2015,05,21,00,09,17.10
2015,05,21,00,10,17.10
2015,05,21,00,11,17.10
2015,05,21,00,12,17.10
2015,05,21,00,13,17.00
2015,05,21,00,14,17.00
2015,05,21,00,15,16.90
2015,05,21,00,16,16.90
2015,05,21,00,17,16.90
2015,05,21,00,18,16.90
2015,05,21,00,19,16.90
2015,05,21,00,20,16.90
2015,05,21,00,21,16.80
2015,05,21,00,22,16.80
2015,05,21,00,23,16.80
2015,05,21,00,24,16.80
2015,05,21,00,25,16.80
2015,05,21,00,26,16.80
2015,05,21,00,27,16.80
2015,05,21,00,28,16.70
2015,05,21,00,29,16.70
2015,05,21,00,30,16.70
2015,05,21,00,31,16.70
2015,05,21,00,32,16.60
2015,05,21,00,33,16.60
2015,05,21,00,34,16.60
2015,05,21,00,35,16.60
2015,05,21,00,36,16.60
2015,05,21,00,37,16.60
2015,05,21,00,38,16.60
2015,05,21,00,39,16.60
2015,05,21,00,40,16.60
2015,05,21,00,41,16.50
2015,05,21,00,42,16.50
2015,05,21,00,43,16.50
2015,05,21,00,44,16.50
2015,05,21,00,45,16.40
2015,05,21,00,46,16.40
2015,05,21,00,47,16.40
2015,05,21,00,48,16.40
2015,05,21,00,49,16.40
2015,05,21,00,50,16.40
2015,05,21,00,51,16.30
2015,05,21,00,52,16.30
2015,05,21,00,53,16.30
2015,05,21,00,54,16.30
2015,05,21,00,55,16.30
2015,05,21,00,56,16.30
2015,05,21,00,57,16.20
2015,05,21,00,58,16.20
2015,05,21,00,59,16.20
2015,05,21,01,00,16.10
2015,05,21,01,01,16.10
2015,05,21,01,02,16.10
2015,05,21,01,03,16.00
2015,05,21,01,04,16.00
2015,05,21,01,05,16.00
2015,05,21,01,06,16.00
2015,05,21,01,07,16.00
2015,05,21,01,08,15.90
2015,05,21,01,09,15.90
2015,05,21,01,10,15.90
2015,05,21,01,11,15.90
2015,05,21,01,12,15.90
2015,05,21,01,13,15.90
2015,05,21,01,14,15.90
2015,05,21,01,15,15.80
2015,05,21,01,16,15.80
2015,05,21,01,17,15.80
2015,05,21,01,18,15.80
2015,05,21,01,19,15.80
2015,05,21,01,20,15.80
2015,05,21,01,21,15.80
2015,05,21,01,22,15.80
2015,05,21,01,23,15.80
2015,05,21,01,24,15.80
2015,05,21,01,25,15.70
2015,05,21,01,26,15.70
2015,05,21,01,27,15.70
2015,05,21,01,28,15.70
2015,05,21,01,29,15.70
2015,05,21,01,30,15.70
2015,05,21,01,31,15.70
2015,05,21,01,32,15.70
2015,05,21,01,33,15.70
2015,05,21,01,34,15.60
2015,05,21,01,35,15.60
2015,05,21,01,36,15.60
2015,05,21,01,37,15.60
2015,05,21,01,38,15.60
2015,05,21,01,39,15.60
2015,05,21,01,40,15.60
2015,05,21,01,41,15.60
2015,05,21,01,42,15.50
2015,05,21,01,43,15.50
2015,05,21,01,44,15.50
2015,05,21,01,45,15.50
2015,05,21,01,46,15.40
2015,05,21,01,47,15.40
2015,05,21,01,48,15.40
2015,05,21,01,49,15.40
2015,05,21,01,50,15.40
2015,05,21,01,51,15.30
2015,05,21,01,52,15.30
2015,05,21,01,53,15.30
2015,05,21,01,54,15.30
2015,05,21,01,55,15.30
2015,05,21,01,56,15.30
2015,05,21,01,57,15.20
2015,05,21,01,58,15.20
2015,05,21,01,59,15.20
2015,05,21,02,00,15.20
2015,05,21,02,01,15.20
2015,05,21,02,02,15.20
2015,05,21,02,03,15.20
2015,05,21,02,04,15.20
2015,05,21,02,05,15.10
2015,05,21,02,06,15.10
2015,05,21,02,07,15.10
2015,05,21,02,08,15.10
2015,05,21,02,09,15.10
2015,05,21,02,10,15.10
2015,05,21,02,11,15.10
2015,05,21,02,12,15.00
2015,05,21,02,13,15.00
2015,05,21,02,14,15.00
2015,05,21,02,15,15.00
2015,05,21,02,16,15.00
2015,05,21,02,17,15.00
2015,05,21,02,18,15.00
2015,05,21,02,19,14.90
2015,05,21,02,20,14.90
2015,05,21,02,21,14.90
2015,05,21,02,22,14.90
2015,05,21,02,23,14.90
2015,05,21,02,24,14.90
2015,05,21,02,25,14.90
2015,05,21,02,26,14.90
2015,05,21,02,27,14.90
2015,05,21,02,28,14.90
2015,05,21,02,29,14.80
2015,05,21,02,30,14.80
2015,05,21,02,31,14.80
2015,05,21,02,32,14.80
2015,05,21,02,33,14.80
2015,05,21,02,34,14.80
2015,05,21,02,35,14.80
2015,05,21,02,36,14.80
2015,05,21,02,37,14.70
2015,05,21,02,38,14.70
2015,05,21,02,39,14.70
2015,05,21,02,40,14.70
2015,05,21,02,41,14.70
2015,05,21,02,42,14.70
2015,05,21,02,43,14.60
2015,05,21,02,44,14.60
2015,05,21,02,45,14.60
2015,05,21,02,46,14.60
2015,05,21,02,47,14.60
2015,05,21,02,48,14.60
2015,05,21,02,49,14.60
2015,05,21,02,50,14.60
2015,05,21,02,51,14.50
2015,05,21,02,52,14.50
2015,05,21,02,53,14.50
2015,05,21,02,54,14.50
2015,05,21,02,55,14.40
2015,05,21,02,56,14.40
2015,05,21,02,57,14.40
2015,05,21,02,58,14.40
2015,05,21,02,59,14.40
2015,05,21,03,00,14.40
2015,05,21,03,01,14.40
2015,05,21,03,02,14.30
2015,05,21,03,03,14.30
2015,05,21,03,04,14.30
2015,05,21,03,05,14.30
2015,05,21,03,06,14.30
2015,05,21,03,07,14.30
2015,05,21,03,08,14.30
2015,05,21,03,09,14.30
2015,05,21,03,10,14.30
2015,05,21,03,11,14.30
2015,05,21,03,12,14.20
2015,05,21,03,13,14.20
2015,05,21,03,14,14.20
2015,05,21,03,15,14.20
2015,05,21,03,16,14.20
2015,05,21,03,17,14.20
2015,05,21,03,18,14.20
2015,05,21,03,19,14.20
2015,05,21,03,20,14.20
2015,05,21,03,21,14.10
2015,05,21,03,22,14.10
2015,05,21,03,23,14.10
2015,05,21,03,24,14.10
2015,05,21,03,25,14.00
2015,05,21,03,26,14.00
2015,05,21,03,27,14.00
2015,05,21,03,28,14.00
2015,05,21,03,29,14.00
2015,05,21,03,30,14.00
2015,05,21,03,31,13.90
2015,05,21,03,32,13.90
2015,05,21,03,33,13.90
2015,05,21,03,34,13.90
2015,05,21,03,35,13.90
2015,05,21,03,36,13.90
2015,05,21,03,37,13.80
2015,05,21,03,38,13.80
2015,05,21,03,39,13.80
2015,05,21,03,40,13.80
2015,05,21,03,41,13.80
2015,05,21,03,42,13.80
2015,05,21,03,43,13.70
2015,05,21,03,44,13.70
2015,05,21,03,45,13.70
2015,05,21,03,46,13.70
2015,05,21,03,47,13.70
2015,05,21,03,48,13.70
2015,05,21,03,49,13.70
2015,05,21,03,50,13.70
2015,05,21,03,51,13.70
2015,05,21,03,52,13.60
2015,05,21,03,53,13.60
2015,05,21,03,54,13.60
2015,05,21,03,55,13.60
2015,05,21,03,56,13.60
2015,05,21,03,57,13.60
2015,05,21,03,58,13.60
2015,05,21,03,59,13.60
2015,05,21,04,00,13.60
2015,05,21,04,01,13.60
2015,05,21,04,02,13.60
2015,05,21,04,03,13.60
2015,05,21,04,04,13.60
2015,05,21,04,05,13.50
2015,05,21,04,06,13.50
2015,05,21,04,07,13.50
2015,05,21,05,02,12.70
2015,05,21,05,03,12.70
2015,05,21,05,04,12.70
2015,05,21,05,05,12.70
2015,05,21,05,06,12.70
2015,05,21,05,07,12.70
2015,05,21,05,08,12.70
2015,05,21,05,09,12.70
2015,05,21,05,10,12.70
2015,05,21,05,11,12.70
2015,05,21,05,12,12.70
2015,05,21,05,13,12.70
2015,05,21,05,14,12.70
2015,05,21,05,15,12.70
2015,05,21,05,16,12.70
2015,05,21,05,17,12.60
2015,05,21,05,18,12.60
2015,05,21,05,19,12.60
2015,05,21,05,20,12.60
2015,05,21,05,21,12.60
2015,05,21,05,22,12.60
2015,05,21,05,23,12.60
2015,05,21,05,24,12.60
2015,05,21,05,25,12.50
2015,05,21,05,26,12.50
2015,05,21,05,27,12.50
2015,05,21,05,28,12.50
2015,05,21,05,29,12.50
2015,05,21,05,30,12.40
2015,05,21,05,31,12.40
2015,05,21,05,32,12.40
2015,05,21,05,33,12.40
2015,05,21,05,34,12.40
2015,05,21,05,35,12.40
2015,05,21,05,36,12.40
2015,05,21,05,37,12.40
2015,05,21,05,38,12.40
2015,05,21,05,39,12.40
2015,05,21,05,40,12.40
2015,05,21,05,41,12.40
2015,05,21,05,42,12.40
2015,05,21,05,43,12.30
2015,05,21,05,44,12.30
2015,05,21,05,45,12.30
2015,05,21,05,46,12.30
2015,05,21,05,47,12.30
2015,05,21,05,48,12.30
2015,05,21,05,49,12.30
2015,05,21,05,50,12.30
2015,05,21,05,51,12.30
2015,05,21,05,52,12.20
2015,05,21,05,53,12.20
2015,05,21,05,54,12.20
2015,05,21,05,55,12.20
2015,05,21,05,56,12.20
2015,05,21,05,57,12.20
2015,05,21,05,58,12.20
2015,05,21,05,59,12.20
2015,05,21,06,00,12.20
2015,05,21,06,01,12.20
2015,05,21,06,02,12.10
2015,05,21,06,03,12.10
2015,05,21,06,04,12.10
2015,05,21,06,05,12.10
2015,05,21,06,06,12.10
2015,05,21,06,07,12.10
2015,05,21,06,08,12.10
2015,05,21,06,09,12.10
2015,05,21,06,10,12.10
2015,05,21,06,11,12.10
2015,05,21,06,12,12.10
2015,05,21,06,13,12.10
2015,05,21,06,14,12.10
2015,05,21,06,15,12.10
2015,05,21,06,16,12.10
2015,05,21,06,17,12.10
2015,05,21,06,18,12.10
2015,05,21,06,19,12.10
2015,05,21,06,20,12.10
2015,05,21,06,21,12.10
2015,05,21,06,22,12.10
2015,05,21,06,23,12.10
2015,05,21,06,24,12.10
2015,05,21,06,25,12.10
2015,05,21,06,26,12.10
2015,05,21,06,27,12.10
2015,05,21,06,28,12.10
2015,05,21,06,29,12.10
2015,05,21,06,30,12.10
2015,05,21,06,31,12.10
2015,05,21,06,32,12.10
2015,05,21,06,33,12.10
2015,05,21,06,34,12.10
2015,05,21,06,35,12.10
2015,05,21,06,36,12.20
2015,05,21,06,37,12.20
2015,05,21,06,38,12.20
2015,05,21,06,39,12.20
2015,05,21,06,40,12.20
2015,05,21,06,41,12.20
2015,05,21,06,42,12.20
2015,05,21,06,43,12.20
2015,05,21,06,44,12.20
2015,05,21,06,45,12.20
2015,05,21,06,46,12.20
2015,05,21,06,47,12.20
2015,05,21,06,48,12.20
2015,05,21,06,49,12.20
2015,05,21,06,50,12.20
2015,05,21,06,51,12.20
2015,05,21,06,52,12.20
2015,05,21,06,53,12.20
2015,05,21,06,54,12.20
2015,05,21,06,55,12.20
2015,05,21,06,56,12.30
2015,05,21,06,57,12.30
2015,05,21,06,58,12.30
2015,05,21,06,59,12.30
2015,05,21,07,00,12.30
2015,05,21,07,01,12.30
2015,05,21,07,02,12.30
2015,05,21,07,03,12.30
2015,05,21,07,04,12.30
2015,05,21,07,05,12.30
2015,05,21,07,06,12.30
2015,05,21,07,07,12.30
2015,05,21,07,08,12.30
2015,05,21,07,09,12.30
2015,05,21,07,10,12.30
2015,05,21,07,11,12.40
2015,05,21,07,12,12.40
2015,05,21,07,13,12.40
2015,05,21,07,14,12.40
2015,05,21,07,15,12.40
2015,05,21,07,16,12.40
2015,05,21,07,17,12.40
2015,05,21,07,18,12.50
2015,05,21,07,19,12.50
2015,05,21,07,20,12.50
2015,05,21,07,21,12.50
2015,05,21,07,22,12.50
2015,05,21,07,23,12.50
2015,05,21,07,24,12.50
2015,05,21,07,25,12.60
2015,05,21,07,26,12.60
2015,05,21,07,27,12.60
2015,05,21,07,28,12.60
2015,05,21,07,29,12.60
2015,05,21,07,30,12.60
2015,05,21,07,31,12.60
2015,05,21,07,32,12.70
2015,05,21,07,33,12.70
2015,05,21,07,34,12.70
2015,05,21,07,35,12.70
2015,05,21,07,36,12.70
2015,05,21,07,37,12.80
2015,05,21,07,38,12.80
2015,05,21,07,39,12.80
2015,05,21,07,40,12.80
2015,05,21,07,41,12.80
2015,05,21,07,42,12.90
2015,05,21,07,43,12.90
2015,05,21,07,44,12.90
2015,05,21,07,45,13.00
2015,05,21,07,46,13.00
2015,05,21,07,47,13.10
2015,05,21,07,48,13.10
2015,05,21,07,49,13.10
2015,05,21,07,50,13.10
2015,05,21,07,51,13.10
2015,05,21,07,52,13.10
2015,05,21,07,53,13.20
2015,05,21,07,54,13.20
2015,05,21,07,55,13.20
2015,05,21,07,56,13.20
2015,05,21,07,57,13.20
2015,05,21,07,58,13.30
2015,05,21,07,59,13.30
2015,05,21,08,00,13.30
2015,05,21,08,01,13.30
2015,05,21,08,02,13.30
2015,05,21,08,03,13.30
2015,05,21,08,04,13.30
2015,05,21,08,05,13.40
2015,05,21,08,06,13.40
2015,05,21,08,07,13.40
2015,05,21,08,08,13.40
2015,05,21,08,09,13.50
2015,05,21,08,10,13.50
2015,05,21,08,11,13.60
2015,05,21,08,12,13.60
2015,05,21,08,13,13.70
2015,05,21,08,14,13.70
2015,05,21,08,15,13.70
2015,05,21,08,16,13.80
2015,05,21,08,17,13.80
2015,05,21,08,18,13.80
2015,05,21,08,19,13.80
2015,05,21,08,20,13.80
2015,05,21,08,21,13.80
2015,05,21,08,22,13.90
2015,05,21,08,23,13.90
2015,05,21,08,24,14.00
2015,05,21,08,25,14.10
2015,05,21,08,26,14.10
2015,05,21,08,27,14.10
2015,05,21,08,28,14.10
2015,05,21,08,29,14.20
2015,05,21,08,30,14.20
2015,05,21,08,31,14.20
2015,05,21,08,32,14.20
2015,05,21,08,33,14.20
2015,05,21,08,34,14.20
2015,05,21,08,35,14.20
2015,05,21,08,36,14.20
2015,05,21,08,37,14.30
2015,05,21,08,38,14.30
2015,05,21,08,39,14.30
2015,05,21,08,40,14.40
2015,05,21,08,41,14.50
2015,05,21,08,42,14.50
2015,05,21,08,43,14.50
2015,05,21,08,44,14.40
2015,05,21,08,45,14.40
2015,05,21,08,46,14.40
2015,05,21,08,47,14.40
2015,05,21,08,48,14.40
2015,05,21,08,49,14.40
2015,05,21,08,50,14.40
2015,05,21,08,51,14.40
2015,05,21,08,52,14.40
2015,05,21,08,53,14.50
2015,05,21,08,54,14.50
2015,05,21,08,55,14.60
2015,05,21,08,56,14.60
2015,05,21,08,57,14.70
2015,05,21,08,58,14.70
2015,05,21,08,59,14.70
2015,05,21,09,00,14.70
2015,05,21,09,01,14.60
2015,05,21,09,02,14.60
2015,05,21,09,03,14.70
2015,05,21,09,04,14.70
2015,05,21,09,05,14.70
2015,05,21,09,06,14.70
2015,05,21,09,07,14.70
2015,05,21,09,08,14.80
2015,05,21,09,09,14.80
2015,05,21,09,10,14.80
2015,05,21,09,11,14.80
2015,05,21,09,12,14.90
2015,05,21,09,13,14.90
2015,05,21,09,14,14.90
2015,05,21,09,15,15.00
2015,05,21,09,16,15.00
2015,05,21,09,17,15.10
2015,05,21,09,18,15.20
2015,05,21,09,19,15.20
2015,05,21,09,20,15.30
2015,05,21,09,21,15.30
2015,05,21,09,22,15.30
2015,05,21,09,23,15.30
2015,05,21,09,24,15.30
2015,05,21,09,25,15.30
2015,05,21,09,26,15.30
2015,05,21,09,27,15.30
2015,05,21,09,28,15.40
2015,05,21,09,29,15.40
2015,05,21,09,30,15.50
2015,05,21,09,31,15.50
2015,05,21,09,32,15.60
2015,05,21,09,33,15.60
2015,05,21,09,34,15.70
2015,05,21,09,35,15.70
2015,05,21,09,36,15.80
2015,05,21,09,37,15.80
2015,05,21,09,38,15.90
2015,05,21,09,39,15.90
2015,05,21,09,40,15.90
2015,05,21,09,41,16.00
2015,05,21,09,42,16.00
2015,05,21,09,43,16.10
2015,05,21,09,44,16.10
2015,05,21,09,45,16.10
2015,05,21,09,46,16.20
2015,05,21,09,47,16.20
2015,05,21,09,48,16.30
2015,05,21,09,49,16.30
2015,05,21,09,50,16.40
2015,05,21,09,51,16.50
2015,05,21,09,52,16.50
2015,05,21,09,53,16.60
2015,05,21,09,54,16.60
2015,05,21,09,55,16.70
2015,05,21,09,56,16.80
2015,05,21,09,57,16.90
2015,05,21,09,58,16.90
2015,05,21,09,59,16.90
2015,05,21,10,00,16.80
2015,05,21,10,01,16.80
2015,05,21,10,02,16.80
2015,05,21,10,03,16.80
2015,05,21,10,04,16.90
2015,05,21,10,05,16.90
2015,05,21,10,06,16.90
2015,05,21,10,07,17.00
2015,05,21,10,08,17.00
2015,05,21,10,09,17.00
2015,05,21,10,10,17.00
2015,05,21,10,11,17.10
2015,05,21,10,12,17.10
2015,05,21,10,13,17.10
2015,05,21,10,14,17.20
2015,05,21,10,15,17.20
2015,05,21,10,16,17.20
2015,05,21,10,17,17.20
2015,05,21,10,18,17.20
2015,05,21,10,19,17.20
2015,05,21,10,20,17.10
2015,05,21,10,21,17.10
2015,05,21,10,22,17.10
2015,05,21,10,23,17.10
2015,05,21,10,24,17.10
2015,05,21,10,25,17.10
2015,05,21,10,26,17.10
2015,05,21,10,27,17.20
2015,05,21,10,28,17.20
2015,05,21,10,29,17.20
2015,05,21,10,30,17.20
2015,05,21,10,31,17.20
2015,05,21,10,32,17.20
2015,05,21,10,33,17.20
2015,05,21,10,34,17.30
2015,05,21,10,35,17.30
2015,05,21,10,36,17.40
2015,05,21,10,37,17.40
2015,05,21,10,38,17.50
2015,05,21,10,39,17.50
2015,05,21,10,40,17.50
2015,05,21,10,41,17.60
2015,05,21,10,42,17.60
2015,05,21,10,43,17.60
2015,05,21,10,44,17.70
2015,05,21,10,45,17.70
2015,05,21,10,46,17.80
2015,05,21,10,47,17.80
2015,05,21,10,48,17.80
2015,05,21,10,49,17.90
2015,05,21,10,50,17.90
2015,05,21,10,51,17.90
2015,05,21,10,52,17.90
2015,05,21,10,53,17.90
2015,05,21,10,54,17.90
2015,05,21,10,55,17.90
2015,05,21,10,56,17.90
2015,05,21,10,57,18.00
2015,05,21,10,58,18.10
2015,05,21,10,59,18.10
2015,05,21,11,00,18.20
2015,05,21,11,01,18.30
2015,05,21,11,02,18.30
2015,05,21,11,03,18.40
2015,05,21,11,04,18.40
2015,05,21,11,05,18.50
2015,05,21,11,06,18.60
2015,05,21,11,07,18.60
2015,05,21,11,08,18.60
2015,05,21,11,09,18.60
2015,05,21,11,10,18.70
2015,05,21,11,11,18.70
2015,05,21,11,12,18.60
2015,05,21,11,13,18.70
2015,05,21,11,14,18.70
2015,05,21,11,15,18.60
2015,05,21,11,16,18.60
2015,05,21,11,17,18.70
2015,05,21,11,18,18.70
2015,05,21,11,19,18.80
2015,05,21,11,20,18.90
2015,05,21,11,21,19.00
2015,05,21,11,22,19.10
2015,05,21,11,23,19.10
2015,05,21,11,24,19.10
2015,05,21,11,25,19.00
2015,05,21,11,26,19.10
2015,05,21,11,27,19.10
2015,05,21,11,28,19.10
2015,05,21,11,29,19.20
2015,05,21,11,30,19.30
2015,05,21,11,31,19.30
2015,05,21,11,32,19.30
2015,05,21,11,33,19.30
2015,05,21,11,34,19.30
2015,05,21,11,35,19.30
2015,05,21,11,36,19.40
2015,05,21,11,37,19.50
2015,05,21,11,38,19.50
2015,05,21,11,39,19.50
2015,05,21,11,40,19.50
2015,05,21,11,41,19.50
2015,05,21,11,42,19.50
2015,05,21,11,43,19.50
2015,05,21,11,44,19.60
2015,05,21,11,45,19.60
2015,05,21,11,46,19.60
2015,05,21,11,47,19.60
2015,05,21,11,48,19.60
2015,05,21,11,49,19.60
2015,05,21,11,50,19.70
2015,05,21,11,51,19.80
2015,05,21,11,52,19.90
2015,05,21,11,53,20.00
2015,05,21,11,54,20.10
2015,05,21,11,55,20.20
2015,05,21,11,56,20.30
2015,05,21,11,57,20.30
2015,05,21,11,58,20.30
2015,05,21,11,59,20.30
2015,05,21,12,00,20.40
2015,05,21,12,01,20.40
2015,05,21,12,02,20.40
2015,05,21,12,03,20.40
2015,05,21,12,04,20.40
2015,05,21,12,05,20.50
2015,05,21,12,06,20.50
2015,05,21,12,07,20.50
2015,05,21,12,08,20.50
2015,05,21,12,09,20.60
2015,05,21,12,10,20.60
2015,05,21,12,11,20.80
2015,05,21,12,12,20.90
2015,05,21,12,13,21.00
2015,05,21,12,14,21.10
2015,05,21,12,15,21.20
2015,05,21,12,16,21.30
2015,05,21,12,17,21.40
2015,05,21,12,18,21.50
2015,05,21,12,19,21.60
2015,05,21,12,20,21.70
2015,05,21,12,21,21.80
2015,05,21,12,22,21.90
2015,05,21,12,23,21.90
2015,05,21,12,24,22.00
2015,05,21,12,25,22.10
2015,05,21,12,26,22.20
2015,05,21,12,27,22.20
2015,05,21,12,28,22.20
2015,05,21,12,29,22.20
2015,05,21,12,30,22.20
2015,05,21,12,31,22.30
2015,05,21,12,32,22.30
2015,05,21,12,33,22.30
2015,05,21,12,34,22.30
2015,05,21,12,35,22.20
2015,05,21,12,36,22.20
2015,05,21,12,37,22.20
2015,05,21,12,38,22.20
2015,05,21,12,39,22.20
2015,05,21,12,40,22.30
2015,05,21,12,41,22.30
2015,05,21,12,42,22.30
2015,05,21,12,43,22.40
2015,05,21,12,44,22.50
2015,05,21,12,45,22.50
2015,05,21,12,46,22.60
2015,05,21,12,47,22.60
2015,05,21,12,48,22.70
2015,05,21,12,49,22.70
2015,05,21,12,50,22.70
2015,05,21,12,51,22.70
2015,05,21,12,52,22.70
2015,05,21,12,53,22.70
2015,05,21,12,54,22.80
2015,05,21,12,55,22.80
2015,05,21,12,56,22.80
2015,05,21,12,57,22.80
2015,05,21,12,58,22.80
2015,05,21,12,59,22.90
2015,05,21,13,00,22.90
2015,05,21,13,01,22.90
2015,05,21,13,02,23.00
2015,05,21,13,03,23.10
2015,05,21,13,04,23.10
2015,05,21,13,05,23.10
2015,05,21,13,06,23.20
2015,05,21,13,07,23.30
2015,05,21,13,08,23.30
2015,05,21,13,09,23.40
2015,05,21,13,10,23.30
2015,05,21,13,11,23.30
2015,05,21,13,12,23.30
2015,05,21,13,13,23.30
2015,05,21,13,14,23.30
2015,05,21,13,15,23.30
2015,05,21,13,16,23.30
2015,05,21,13,17,23.40
2015,05,21,13,18,23.50
2015,05,21,13,19,23.60
2015,05,21,13,20,23.60
2015,05,21,13,21,23.70
2015,05,21,13,22,23.70
2015,05,21,13,23,23.70
2015,05,21,13,24,23.60
2015,05,21,13,25,23.60
2015,05,21,13,26,23.60
2015,05,21,13,27,23.60
2015,05,21,13,28,23.70
2015,05,21,13,29,23.80
2015,05,21,13,30,23.90
2015,05,21,13,31,23.90
2015,05,21,13,32,24.10
2015,05,21,13,33,24.10
2015,05,21,13,34,24.20
2015,05,21,13,35,24.20
2015,05,21,13,36,24.20
2015,05,21,13,37,24.20
2015,05,21,13,38,24.20
2015,05,21,13,39,24.20
2015,05,21,13,40,24.30
2015,05,21,13,41,24.30
2015,05,21,13,42,24.30
2015,05,21,13,43,24.20
2015,05,21,13,44,24.20
2015,05,21,13,45,24.10
2015,05,21,13,46,24.10
2015,05,21,13,47,24.10
2015,05,21,13,48,24.10
2015,05,21,13,49,24.10
2015,05,21,13,50,24.10
2015,05,21,13,51,24.10
2015,05,21,13,52,24.10
2015,05,21,13,53,24.10
2015,05,21,13,54,24.10
2015,05,21,13,55,24.20
2015,05,21,13,56,24.40
2015,05,21,13,57,24.50
2015,05,21,13,58,24.60
2015,05,21,13,59,24.70
2015,05,21,14,00,24.90
2015,05,21,14,01,25.00
2015,05,21,14,02,25.20
2015,05,21,14,03,25.30
2015,05,21,14,04,25.40
2015,05,21,14,05,25.40
2015,05,21,14,06,25.40
2015,05,21,14,07,25.30
2015,05,21,14,08,25.30
2015,05,21,14,09,25.40
2015,05,21,14,10,25.40
2015,05,21,14,11,25.50
2015,05,21,14,12,25.50
2015,05,21,14,13,25.60
2015,05,21,14,14,25.60
2015,05,21,14,15,25.60
2015,05,21,14,16,25.60
2015,05,21,14,17,25.60
2015,05,21,14,18,25.60
2015,05,21,14,19,25.50
2015,05,21,14,20,25.50
2015,05,21,14,21,25.40
2015,05,21,14,22,25.40
2015,05,21,14,23,25.50
2015,05,21,14,24,25.50
2015,05,21,14,25,25.60
2015,05,21,14,26,25.60
2015,05,21,14,27,25.60
2015,05,21,14,28,25.60
2015,05,21,14,29,25.70
2015,05,21,14,30,25.70
2015,05,21,14,31,25.80
2015,05,21,14,32,25.90
2015,05,21,14,33,25.90
2015,05,21,14,34,26.00
2015,05,21,14,35,26.10
2015,05,21,14,36,26.10
2015,05,21,14,37,26.20
2015,05,21,14,38,26.20
2015,05,21,14,39,26.20
2015,05,21,14,40,26.20
2015,05,21,14,41,26.20
2015,05,21,14,42,26.20
2015,05,21,14,43,26.20
2015,05,21,14,44,26.30
2015,05,21,14,45,26.20
2015,05,21,14,46,26.20
2015,05,21,14,47,26.20
2015,05,21,14,48,26.10
2015,05,21,14,49,26.10
2015,05,21,14,50,26.10
2015,05,21,14,51,26.10
2015,05,21,14,52,26.20
2015,05,21,14,53,26.30
2015,05,21,14,54,26.40
2015,05,21,14,55,26.40
2015,05,21,14,56,26.50
2015,05,21,14,57,26.60
2015,05,21,14,58,26.60
2015,05,21,14,59,26.60
2015,05,21,15,00,26.60
2015,05,21,15,01,26.70
2015,05,21,15,02,26.70
2015,05,21,15,03,26.70
2015,05,21,15,04,26.70
2015,05,21,15,05,26.70
2015,05,21,15,06,26.60
2015,05,21,15,07,26.50
2015,05,21,15,08,26.50
2015,05,21,15,09,26.40
2015,05,21,15,10,26.40
2015,05,21,15,11,26.40
2015,05,21,15,12,26.40
2015,05,21,15,13,26.50
2015,05,21,15,14,26.50
2015,05,21,15,15,26.50
2015,05,21,15,16,26.40
2015,05,21,15,17,26.40
2015,05,21,15,18,26.50
2015,05,21,15,19,26.60
2015,05,21,15,20,26.60
2015,05,21,15,21,26.70
2015,05,21,15,22,26.70
2015,05,21,15,23,26.80
2015,05,21,15,24,26.80
2015,05,21,15,25,26.80
2015,05,21,15,26,26.80
2015,05,21,15,27,26.70
2015,05,21,15,28,26.60
2015,05,21,15,29,26.50
2015,05,21,15,30,26.40
2015,05,21,15,31,26.40
2015,05,21,15,32,26.40
2015,05,21,15,33,26.50
2015,05,21,15,34,26.60
2015,05,21,15,35,26.60
2015,05,21,15,36,26.70
2015,05,21,15,37,26.70
2015,05,21,15,38,26.70
2015,05,21,15,39,26.70
2015,05,21,15,40,26.70
2015,05,21,15,41,26.60
2015,05,21,15,42,26.60
2015,05,21,15,43,26.60
2015,05,21,15,44,26.50
2015,05,21,15,45,26.50
2015,05,21,15,46,26.50
2015,05,21,15,47,26.50
2015,05,21,15,48,26.50
2015,05,21,15,49,26.50
2015,05,21,15,50,26.60
2015,05,21,15,51,26.70
2015,05,21,15,52,26.70
2015,05,21,15,53,26.80
2015,05,21,15,54,26.90
2015,05,21,15,55,26.90
2015,05,21,15,56,26.90
2015,05,21,15,57,26.90
2015,05,21,15,58,27.00
2015,05,21,15,59,27.10
2015,05,21,16,00,27.10
2015,05,21,16,01,27.10
2015,05,21,16,02,27.10
2015,05,21,16,03,27.10
2015,05,21,16,04,27.10
2015,05,21,16,05,27.00
2015,05,21,16,06,27.00
2015,05,21,16,07,26.90
2015,05,21,16,08,26.80
2015,05,21,16,09,26.70
2015,05,21,16,10,26.70
2015,05,21,16,11,26.50
2015,05,21,16,12,26.40
2015,05,21,16,13,26.30
2015,05,21,16,14,26.20
2015,05,21,16,15,26.20
2015,05,21,16,16,26.10
2015,05,21,16,17,26.10
2015,05,21,16,18,26.10
2015,05,21,16,19,26.00
2015,05,21,16,20,26.00
2015,05,21,16,21,25.90
2015,05,21,16,22,25.80
2015,05,21,16,23,25.80
2015,05,21,16,24,25.70
2015,05,21,16,25,25.70
2015,05,21,16,26,25.60
2015,05,21,16,27,25.50
2015,05,21,16,28,25.40
2015,05,21,16,29,25.40
2015,05,21,16,30,25.30
2015,05,21,16,31,25.30
2015,05,21,16,32,25.30
2015,05,21,16,33,25.20
2015,05,21,16,34,25.20
2015,05,21,16,35,25.20
2015,05,21,16,36,25.20
2015,05,21,16,37,25.20
2015,05,21,16,38,25.20
2015,05,21,16,39,25.20
2015,05,21,16,40,25.20
2015,05,21,16,41,25.20
2015,05,21,16,42,25.20
2015,05,21,16,43,25.20
2015,05,21,16,44,25.20
2015,05,21,16,45,25.20
2015,05,21,16,46,25.20
2015,05,21,16,47,25.10
2015,05,21,16,48,25.10
2015,05,21,16,49,25.10
2015,05,21,16,50,25.00
2015,05,21,16,51,25.00
2015,05,21,16,52,24.90
2015,05,21,16,53,24.90
2015,05,21,16,54,24.80
2015,05,21,16,55,24.80
2015,05,21,16,56,24.70
2015,05,21,16,57,24.70
2015,05,21,16,58,24.60
2015,05,21,16,59,24.50
2015,05,21,17,00,24.50
2015,05,21,17,01,24.40
2015,05,21,17,02,24.40
2015,05,21,17,03,24.30
2015,05,21,17,04,24.20
2015,05,21,17,05,24.10
2015,05,21,17,06,24.10
2015,05,21,17,07,24.00
2015,05,21,17,08,23.90
2015,05,21,17,09,23.80
2015,05,21,17,10,23.70
2015,05,21,17,11,23.70
2015,05,21,17,12,23.60
2015,05,21,17,13,23.60
2015,05,21,17,14,23.50
2015,05,21,17,15,23.50
2015,05,21,17,16,23.50
2015,05,21,17,17,23.40
2015,05,21,17,18,23.40
2015,05,21,17,19,23.40
2015,05,21,17,20,23.40
2015,05,21,17,21,23.30
2015,05,21,17,22,23.30
2015,05,21,17,23,23.30
2015,05,21,17,24,23.20
2015,05,21,17,25,23.20
2015,05,21,17,26,23.20
2015,05,21,17,27,23.10
2015,05,21,17,28,23.10
2015,05,21,17,29,23.10
2015,05,21,17,30,23.10
2015,05,21,17,31,23.10
2015,05,21,17,32,23.10
2015,05,21,17,33,23.10
2015,05,21,17,34,23.00
2015,05,21,17,35,23.00
2015,05,21,17,36,23.00
2015,05,21,17,37,23.00
2015,05,21,17,38,23.00
2015,05,21,17,39,23.00
2015,05,21,17,40,23.00
2015,05,21,17,41,23.00
2015,05,21,17,42,22.90
2015,05,21,17,43,22.90
2015,05,21,17,44,22.90
2015,05,21,17,45,22.90
2015,05,21,17,46,22.90
2015,05,21,17,47,22.90
2015,05,21,17,48,22.80
2015,05,21,17,49,22.80
2015,05,21,17,50,22.80
2015,05,21,17,51,22.80
2015,05,21,17,52,22.80
2015,05,21,17,53,22.80
2015,05,21,17,54,22.70
2015,05,21,17,55,22.70
2015,05,21,17,56,22.70
2015,05,21,17,57,22.60
2015,05,21,17,58,22.60
2015,05,21,17,59,22.60
2015,05,21,18,00,22.60
2015,05,21,18,01,22.50
2015,05,21,18,02,22.50
2015,05,21,18,03,22.50
2015,05,21,18,04,22.40
2015,05,21,18,05,22.40
2015,05,21,18,06,22.40
2015,05,21,18,07,22.40
2015,05,21,18,08,22.30
2015,05,21,18,09,22.30
2015,05,21,18,10,22.30
2015,05,21,18,11,22.30
2015,05,21,18,12,22.30
2015,05,21,18,13,22.30